Total_Precipitation_Accumulation
1.58 1.78 2.26 2.89 3.31 3.83 4.28 4.28 4.07 4.08 4.15 4.20 4.00 4.17 4.36 4.64 4.91 4.82 4.73 4.64 4.54 4.47 4.50 4.51 4.48 4.32 4.22 4.08 3.95 3.90 3.75 3.50 3.33 3.29 2.94 2.50 2.17 2.05 2.01 2.05 2.13 2.14 2.13
1.75 2.03 2.49 2.79 3.18 3.54 3.75 4.07 4.23 4.26 4.02 4.33 4.63 4.89 5.23 5.26 5.54 5.81 5.86 5.67 5.38 5.17 5.01 4.99 4.70 4.38 4.21 4.06 3.87 3.76 3.58 3.28 3.17 3.15 3.16 2.70 2.25 1.83 1.61 1.73 1.73 1.78 1.95
2.01 2.38 2.70 2.84 3.06 3.42 3.69 4.01 4.34 4.46 4.35 4.78 5.28 5.69 6.05 5.99 6.03 6.06 6.05 5.99 5.57 5.20 4.98 4.78 4.61 4.40 4.23 4.05 3.93 3.80 3.65 3.35 3.16 3.07 3.27 3.11 2.66 2.13 1.84 1.68 1.68 1.78 1.87
1.87 2.18 2.50 2.92 2.92 3.16 3.49 3.75 4.15 4.57 4.84 5.20 5.68 6.22 6.54 6.77 6.63 6.29 6.00 5.64 5.20 4.81 4.43 4.27 4.31 4.19 4.00 3.77 3.48 3.34 3.32 3.24 3.07 2.97 2.85 2.82 2.75 2.56 2.25 1.99 1.95 1.98 1.94
1.78 1.98 2.12 2.44 2.67 2.90 3.19 3.51 3.88 4.31 4.92 5.68 6.26 6.68 7.04 7.06 6.54 6.00 5.42 4.98 4.61 4.26 3.98 3.84 3.92 3.83 3.59 3.40 3.13 2.90 2.77 2.76 2.79 2.79 2.70 2.61 2.56 2.40 2.26 2.09 1.99 1.97 1.91
1.86 2.00 2.11 2.36 2.53 2.65 2.92 3.29 3.75 4.16 4.70 5.44 6.09 6.38 6.58 6.53 6.11 5.49 4.94 4.53 4.06 3.68 3.35 3.12 3.04 2.93 2.74 2.65 2.61 2.52 2.49 2.49 2.51 2.53 2.45 2.39 2.38 2.34 2.34 2.21 1.99 1.95 2.00
2.06 2.01 1.97 2.07 2.32 2.47 2.71 3.07 3.47 3.96 4.32 4.71 5.25 5.32 5.38 5.19 4.82 4.59 4.28 3.79 3.35 2.98 2.64 2.42 2.31 2.26 2.22 2.20 2.21 2.20 2.19 2.16 2.21 2.22 2.21 2.18 2.12 2.14 2.31 2.41 2.26 2.11 1.98
1.87 1.89 1.81 1.96 2.23 2.50 2.74 2.96 3.21 3.59 3.92 4.03 4.12 4.03 3.90 3.81 3.68 3.48 3.11 2.76 2.51 2.35 2.24 2.09 1.95 1.92 1.96 1.97 2.03 1.97 1.89 1.85 1.86 1.82 1.87 1.91 1.86 1.97 2.18 2.31 2.48 2.44 2.17
1.67 1.74 1.78 1.88 2.09 2.41 2.57 2.72 2.85 2.99 3.01 2.99 2.99 2.96 2.93 2.79 2.75 2.64 2.35 2.11 1.99 1.88 1.83 1.80 1.75 1.67 1.62 1.59 1.56 1.54 1.54 1.59 1.59 1.55 1.56 1.56 1.58 1.71 1.87 2.04 2.32 2.53 2.43
1.68 1.70 1.80 1.93 1.85 1.93 2.07 2.20 2.32 2.45 2.43 2.32 2.22 2.26 2.24 2.12 1.99 1.85 1.72 1.61 1.56 1.50 1.49 1.43 1.41 1.45 1.46 1.39 1.30 1.26 1.29 1.33 1.38 1.44 1.41 1.39 1.39 1.47 1.51 1.63 1.83 2.12 2.34
1.73 1.64 1.71 1.75 1.62 1.55 1.52 1.63 1.74 1.92 2.00 1.93 1.88 1.90 1.87 1.80 1.67 1.56 1.48 1.39 1.34 1.32 1.27 1.25 1.21 1.19 1.19 1.17 1.18 1.15 1.18 1.25 1.26 1.27 1.30 1.32 1.37 1.44 1.39 1.43 1.55 1.73 1.98
1.71 1.57 1.54 1.60 1.54 1.48 1.37 1.43 1.50 1.48 1.53 1.55 1.67 1.77 1.68 1.62 1.55 1.52 1.49 1.42 1.29 1.27 1.24 1.23 1.14 1.01 0.97 1.04 1.12 1.11 1.08 1.18 1.19 1.18 1.27 1.28 1.30 1.37 1.38 1.44 1.50 1.62 1.82
1.88 1.69 1.54 1.51 1.51 1.43 1.38 1.41 1.44 1.37 1.32 1.32 1.36 1.47 1.49 1.46 1.44 1.32 1.29 1.29 1.27 1.25 1.20 1.13 1.12 1.05 0.94 0.94 0.96 0.98 0.96 1.01 1.09 1.12 1.19 1.24 1.29 1.30 1.32 1.38 1.42 1.55 1.69
1.87 1.66 1.54 1.50 1.42 1.37 1.35 1.35 1.30 1.19 1.18 1.22 1.34 1.36 1.37 1.42 1.46 1.42 1.35 1.29 1.24 1.19 1.15 1.07 1.01 0.99 0.94 0.83 0.78 0.80 0.86 0.93 0.96 0.96 1.08 1.14 1.19 1.20 1.28 1.33 1.40 1.49 1.68
1.81 1.74 1.56 1.46 1.34 1.22 1.19 1.18 1.13 1.03 1.02 1.09 1.22 1.31 1.25 1.24 1.31 1.38 1.29 1.14 1.09 1.01 0.98 0.93 0.89 0.91 0.84 0.73 0.74 0.76 0.76 0.82 0.84 0.87 0.95 1.01 1.03 1.03 1.10 1.12 1.25 1.43 1.61
1.98 1.93 1.75 1.57 1.39 1.26 1.19 1.17 1.10 0.97 0.95 1.00 1.13 1.20 1.20 1.19 1.20 1.25 1.20 1.13 1.07 1.03 0.98 0.96 0.93 0.88 0.76 0.74 0.70 0.69 0.72 0.79 0.86 0.92 0.94 0.89 0.89 0.86 0.82 0.89 1.00 1.19 1.43
2.03 1.95 1.84 1.66 1.47 1.37 1.27 1.28 1.19 1.05 1.06 1.06 1.07 1.13 1.16 1.20 1.22 1.21 1.19 1.17 1.17 1.17 1.08 0.99 0.95 0.89 0.78 0.69 0.57 0.57 0.64 0.81 0.92 0.99 0.96 0.81 0.76 0.87 0.89 0.90 0.92 1.04 1.17
2.20 2.12 1.90 1.72 1.48 1.32 1.25 1.21 1.15 1.08 1.12 1.08 1.04 1.05 1.05 1.06 1.06 1.12 1.17 1.17 1.15 1.09 1.03 0.96 0.92 0.89 0.70 0.60 0.53 0.55 0.60 0.74 0.79 0.80 0.86 0.93 0.94 0.89 0.93 0.93 1.03 1.11 1.22
2.07 2.01 1.83 1.69 1.55 1.37 1.28 1.22 1.15 1.14 1.08 1.02 0.97 0.92 0.87 0.89 0.92 0.99 1.10 1.20 1.18 1.06 0.96 0.89 0.87 0.84 0.69 0.62 0.59 0.60 0.65 0.71 0.67 0.63 0.68 0.75 0.80 0.80 0.87 0.98 1.15 1.21 1.34
1.55 1.52 1.46 1.42 1.40 1.27 1.21 1.20 1.20 1.14 1.05 0.94 0.87 0.80 0.80 0.84 0.87 0.93 1.05 1.12 1.16 1.04 0.86 0.78 0.80 0.76 0.72 0.64 0.55 0.53 0.55 0.66 0.66 0.69 0.74 0.71 0.65 0.70 0.81 1.01 1.25 1.41 1.46
1.31 1.23 1.21 1.26 1.25 1.16 1.18 1.19 1.14 1.06 0.93 0.83 0.80 0.79 0.83 0.88 0.88 0.99 1.07 1.03 0.95 0.92 0.83 0.78 0.77 0.69 0.59 0.51 0.42 0.43 0.49 0.59 0.67 0.74 0.81 0.80 0.67 0.61 0.69 0.90 1.13 1.30 1.35
1.40 1.27 1.22 1.20 1.15 1.14 1.22 1.21 1.11 0.92 0.80 0.77 0.80 0.83 0.83 0.79 0.79 0.94 1.01 0.93 0.90 0.89 0.85 0.81 0.75 0.64 0.53 0.45 0.39 0.35 0.36 0.41 0.61 0.77 0.77 0.76 0.71 0.68 0.75 0.90 1.07 1.20 1.40
1.39 1.30 1.21 1.14 1.08 1.05 1.10 1.10 0.94 0.74 0.67 0.72 0.82 0.85 0.79 0.85 0.86 0.85 0.88 0.89 0.90 0.81 0.74 0.74 0.70 0.63 0.57 0.48 0.38 0.34 0.33 0.38 0.52 0.68 0.73 0.70 0.66 0.76 0.97 1.09 1.19 1.35 1.59
1.19 1.09 1.02 0.98 0.91 0.83 0.80 0.77 0.65 0.60 0.66 0.76 0.83 0.83 0.83 0.92 0.91 0.83 0.72 0.70 0.71 0.69 0.64 0.63 0.61 0.61 0.62 0.50 0.42 0.42 0.42 0.46 0.53 0.65 0.78 0.82 0.82 0.98 1.18 1.32 1.42 1.53 1.63
1.05 0.96 0.90 0.82 0.70 0.65 0.60 0.54 0.51 0.55 0.65 0.71 0.77 0.78 0.78 0.82 0.88 0.80 0.65 0.59 0.52 0.46 0.46 0.47 0.46 0.53 0.52 0.41 0.40 0.40 0.44 0.51 0.56 0.63 0.81 0.95 0.99 1.10 1.25 1.38 1.45 1.51 1.52
0.92 0.92 0.82 0.71 0.63 0.60 0.56 0.51 0.47 0.50 0.63 0.68 0.65 0.61 0.63 0.67 0.71 0.71 0.62 0.45 0.31 0.24 0.23 0.24 0.28 0.30 0.30 0.28 0.29 0.32 0.37 0.43 0.55 0.71 0.96 1.04 1.02 1.07 1.16 1.28 1.38 1.39 1.37